Location: Most
(50.5133°N, 13.6207°E)
Time: 19:46:55
(UTC+01:00)

SEEDS - Pass Details

Date: 06 December 2021
Orbit: 584 x 600 km, 97.6° (Epoch: 22 January)

Event Time Altitude Azimuth Distance (km) Brightness Sun altitude
Rises 05:35:36 0° 6° (N) 2,824 ? -20.4°
Reaches altitude 10° 05:37:55 10° 356° (N) 1,918 ? -20.1°
Enters shadow 05:38:03 11° 355° (N) 1,870 ? -20.0°
